Terminal Aerodrome Forecast
Issued by NWS Twin Cities, MN

Home | Current Version | Previous Version | Text Only | Print | Product List | Glossary Off
Versions: 1 2 3 4 5 6 7 8 9 10 11 12 13 14 15 16 17 18 19 20 21 22 23 24 25 26

000
FTUS43 KMPX 191100
TAFEAU
TAF
KEAU 191139Z 1912/2012 25003KT 6SM BR SCT003
      TEMPO 1912/1915 1SM BR OVC003
     FM191500 31006KT P6SM SCT010 BKN100
     FM191800 33007KT P6SM -SHRA SCT040 BKN070
     FM200000 36003KT 6SM BR SCT100 SCT200
     FM200400 00000KT 4SM BR SCT003 SCT200
     FM200600 00000KT 2SM BR SCT001
      TEMPO 2008/2012 1/2SM FG BKN001=

USA.gov is the U.S. government's official web portal to all federal, state and local government web resources and services.